Location: Hopkins Observatory
(42.6965°N, 73.1843°W)
Time: 05:50:06
(UTC-04:00)

UOSAT-12 - Visible Passes

Search period start: 22 August 2014 00:00
Search period end: 01 September 2014 00:00
Orbit: 595 x 664 km, 64.6° (Epoch: 21 August)

Date Brightness Start Highest point End Pass type
(mag) Time Alt. Az. Time Alt. Az. Time Alt. Az.
28 Aug 10.1 05:11:05 10° SE 05:12:28 11° ESE 05:13:51 10° E visible
29 Aug 9.3 05:28:51 10° SSE 05:32:36 25° ESE 05:36:25 10° ENE visible
31 Aug 9.8 04:31:28 10° SE 04:33:53 14° ESE 04:36:20 10° ENE visible
